Vorticity
nan nan nan nan nan nan nan nan nan nan nan nan nan nan nan nan nan nan nan nan nan nan nan nan nan nan nan nan nan nan nan nan nan nan nan nan nan nan nan nan nan nan nan nan
nan 10 11 10 9 11 7 7 6 -1 11 7 9 12 16 11 8 6 4 6 8 5 9 13 11 10 10 8 6 7 5 6 4 5 9 9 10 9 9 9 10 9 9 nan
nan 10 14 8 7 10 15 6 8 10 2 5 8 10 13 9 8 8 7 8 8 9 7 9 9 8 8 7 8 7 8 6 6 4 4 7 8 9 9 9 10 11 11 nan
nan 15 9 6 8 6 6 14 10 12 7 8 3 10 12 17 7 4 7 7 7 6 6 10 8 7 7 7 8 8 8 7 8 7 4 5 7 7 8 9 10 11 10 nan
nan 11 8 8 11 5 10 15 15 8 3 6 3 11 16 16 8 8 10 7 8 8 7 7 8 9 6 7 7 8 8 7 9 8 6 4 6 7 9 10 10 8 9 nan
nan 6 11 7 12 10 7 4 5 12 12 9 13 4 6 15 13 5 10 12 10 9 8 8 9 8 8 8 8 9 8 7 8 8 9 7 6 6 6 8 8 8 8 nan
nan 8 9 10 7 7 6 6 7 7 11 11 12 8 7 3 14 17 10 11 11 10 8 8 10 8 9 8 6 7 8 7 8 9 8 8 8 8 8 7 8 7 7 nan
nan 10 8 7 11 11 6 6 7 11 8 9 11 9 14 10 6 11 12 18 14 12 10 10 8 7 7 7 6 7 8 9 9 8 7 8 8 8 9 8 8 8 8 nan
nan 6 9 12 11 7 8 9 8 4 9 13 5 4 16 19 12 14 13 12 12 11 12 9 7 8 7 8 9 8 6 7 9 8 8 8 8 8 9 8 7 8 9 nan
nan 12 10 10 6 8 14 4 5 10 14 6 7 12 11 10 12 8 14 11 10 10 11 10 10 9 8 9 8 8 10 8 7 10 8 10 9 7 8 9 9 8 8 nan
nan 5 9 12 11 5 3 6 8 13 9 10 9 10 15 9 10 10 10 14 15 12 10 10 10 10 9 7 10 9 10 9 7 9 8 8 9 9 8 8 9 9 9 nan
nan 6 10 2 6 15 11 8 7 6 6 9 10 9 14 9 6 12 15 14 12 14 13 13 12 10 11 9 9 9 8 7 8 9 9 8 9 9 8 7 8 9 8 nan
nan 10 6 1 10 16 12 10 7 9 17 15 3 7 7 10 11 11 13 13 10 10 11 13 13 11 10 11 9 10 10 8 10 10 9 9 7 10 12 8 12 9 9 nan
nan 11 15 5 7 9 9 10 9 7 6 12 6 8 5 12 10 9 11 13 13 9 8 8 12 12 11 11 11 10 10 11 10 10 10 11 6 5 10 12 8 11 12 nan
nan 6 11 10 9 6 8 7 9 5 9 7 12 10 8 13 16 14 8 8 11 11 10 10 8 8 9 11 13 12 12 12 12 10 8 10 12 9 6 2 3 14 10 nan
nan 18 17 11 11 8 6 5 6 6 7 7 13 8 14 11 13 15 17 10 5 8 9 8 8 11 12 10 11 12 12 12 11 13 14 11 8 7 9 5 5 4 8 nan
nan 14 15 17 12 9 13 17 2 5 11 13 10 11 8 11 7 8 14 13 11 11 12 12 11 9 11 12 10 11 12 12 12 12 13 10 8 8 4 5 8 6 11 nan
nan 13 8 13 12 12 11 20 21 7 5 7 7 18 11 13 10 10 16 18 15 14 12 9 10 11 11 11 10 11 14 13 11 12 11 9 9 7 5 6 10 10 9 nan
nan 8 14 15 6 6 10 9 19 14 6 7 12 11 13 11 11 9 12 18 17 13 13 14 12 11 12 9 10 13 13 13 11 11 10 11 9 7 5 9 12 14 13 nan
nan 12 13 12 16 8 3 3 9 12 7 8 16 14 12 13 7 5 13 14 10 13 14 14 10 13 12 12 14 12 12 12 11 12 11 11 12 9 6 11 10 11 12 nan
nan 13 12 11 8 7 8 15 16 13 4 9 16 19 18 13 11 13 12 9 12 10 11 11 12 12 11 14 13 11 12 11 14 14 13 12 12 10 10 9 10 10 10 nan
nan 9 12 13 10 3 5 23 15 3 8 14 12 15 17 13 15 14 11 9 10 9 8 11 11 11 14 15 13 11 9 12 15 13 12 11 11 12 13 10 9 9 7 nan
nan 14 9 11 9 6 8 13 13 11 15 10 7 12 10 8 9 11 9 10 11 9 9 9 10 9 12 14 10 10 14 15 11 12 11 10 10 10 12 11 8 9 10 nan
nan 12 10 4 8 13 11 11 12 16 14 12 10 11 9 9 8 12 11 10 8 8 12 12 10 5 9 13 14 13 11 11 11 11 9 9 9 8 8 11 14 14 12 nan
nan 11 7 9 15 8 9 12 6 16 12 10 11 12 11 10 10 11 9 9 12 12 8 15 10 11 12 11 10 10 12 10 10 9 7 10 11 10 8 8 11 13 12 nan
nan nan nan nan nan nan nan nan nan nan nan nan nan nan nan nan nan nan nan nan nan nan nan nan nan nan nan nan nan nan nan nan nan nan nan nan nan nan nan nan nan nan nan nan
CAPE
0 0 0 0 0 0 0 35 27 16 36 64 88 97 119 91 135 179 155 260 542 307 186 236 185 325 245 374 593 768 897 832 653 820 925 972 1197 1074 844 742 893 873 954 919
0 0 0 0 0 0 0 1 8 4 0 59 67 106 45 86 66 56 54 46 95 86 0 11 104 67 164 479 615 706 793 661 812 817 720 696 704 592 590 553 696 917 926 868
0 0 0 0 0 0 0 0 0 4 10 25 48 94 51 76 80 54 33 29 24 27 0 0 45 56 75 322 518 686 749 727 867 724 541 612 571 557 455 297 646 909 812 816
0 0 0 0 0 0 0 0 0 0 12 3 50 15 32 47 81 68 74 67 55 50 39 5 25 60 79 112 345 531 626 694 841 701 729 899 941 1041 534 59 17 104 223 242
0 0 0 0 0 0 0 0 0 0 7 20 35 6 9 40 53 96 90 73 76 48 49 27 25 47 94 120 111 189 316 537 799 842 925 800 613 316 0 0 0 0 0 0
0 0 0 0 0 0 0 0 0 0 0 0 0 0 0 2 128 131 154 158 136 101 85 78 46 62 90 130 165 196 302 487 639 805 810 821 623 0 0 0 0 0 0 0
0 0 0 0 0 0 0 0 0 0 0 0 0 0 15 0 47 111 135 160 192 163 139 140 97 100 128 162 231 393 404 541 738 839 829 876 557 0 0 0 0 0 0 0
0 0 0 0 0 0 0 0 0 0 0 0 0 0 14 19 4 27 82 93 139 123 212 222 133 136 144 246 303 432 593 679 807 900 808 466 174 0 0 0 0 0 0 0
0 0 0 0 0 0 0 0 0 0 0 0 0 0 0 0 0 0 0 27 41 52 257 295 272 191 179 220 377 503 664 790 837 958 640 2 0 0 0 0 0 0 0 0
0 0 0 0 0 0 0 0 0 0 0 0 0 0 0 0 0 0 0 0 16 0 167 320 428 377 337 319 425 611 710 845 813 762 193 3 0 0 0 0 0 0 0 0
0 0 0 0 0 0 0 0 0 0 0 0 0 0 0 0 0 0 0 0 1 0 44 285 563 609 563 496 501 682 887 967 789 357 43 3 0 0 0 0 0 0 0 0
0 0 0 0 0 0 0 0 0 0 0 0 0 0 0 0 0 0 0 0 0 0 9 154 562 711 745 636 608 784 980 1196 989 383 59 0 0 0 0 0 0 0 0 0
0 0 0 0 0 0 0 0 0 0 0 0 0 0 0 0 0 0 0 0 0 0 27 72 267 594 710 670 833 996 1088 1342 1154 392 46 2 0 0 0 6 0 0 0 0
0 0 0 0 0 0 0 0 0 0 0 0 0 0 0 0 0 0 0 0 0 0 15 19 62 252 424 321 744 1110 1206 1339 960 374 133 4 0 0 0 6 0 0 0 0
0 0 0 0 0 0 0 0 0 0 0 0 0 0 0 0 0 0 0 0 0 0 0 5 60 73 152 185 290 712 1158 1324 849 406 144 6 0 0 0 0 40 14 0 0
0 0 0 0 0 0 0 0 0 0 0 0 0 0 0 0 0 0 0 0 0 0 0 0 21 76 54 82 156 660 1117 1321 766 333 101 0 6 2 0 0 0 0 0 0
0 0 0 0 0 0 0 0 0 0 0 0 0 0 0 0 0 0 0 0 0 0 0 0 0 0 0 1 216 788 1151 1042 613 310 3 0 0 0 0 0 0 0 3 1
0 0 0 0 0 0 0 0 0 0 0 0 0 0 0 0 0 0 0 0 0 0 0 0 0 0 0 143 512 676 888 865 523 229 7 0 0 0 0 0 0 0 8 0
0 0 0 0 0 0 0 0 0 0 0 0 0 0 0 0 0 0 0 0 0 0 0 0 0 0 0 2 225 628 722 689 488 228 69 0 0 0 0 6 1 0 0 5
0 0 0 0 0 0 0 0 0 0 10 0 0 0 0 0 0 0 0 0 0 0 0 0 0 0 88 200 98 466 463 517 448 247 181 85 1 0 42 3 0 5 2 19
0 0 0 0 3 0 0 0 0 15 2 0 0 0 0 1 0 0 0 0 0 0 0 31 56 145 242 359 362 325 246 436 369 269 273 170 141 97 17 0 3 2 0 1
0 11 12 0 5 82 0 0 1 0 0 0 0 0 0 0 0 0 0 15 102 174 240 265 315 295 266 247 322 173 238 11 94 161 120 34 0 21 3 18 0 0 0 0
26 22 1 0 0 0 0 0 0 0 0 0 0 0 68 157 179 110 121 205 163 104 74 117 143 71 4 20 88 81 4 4 9 4 4 58 28 21 0 0 0 0 0 0
54 1 0 0 0 0 0 0 0 0 0 0 0 0 0 5 79 177 245 240 149 47 88 46 17 0 0 0 0 1 0 5 5 0 0 0 0 0 0 0 0 0 0 0
40 77 4 0 0 0 0 0 0 0 0 0 0 0 0 0 0 0 231 383 206 55 13 1 2 0 0 0 0 0 0 3 0 0 0 0 0 0 1 2 2 2 2 0
0 10 0 0 0 0 0 0 0 0 0 0 0 0 0 0 0 0 190 212 289 140 0 0 0 0 0 0 0 0 0 0 0 0 0 0 0 1 2 3 2 0 0 1